CW0121 Weather Reports


Display with metric or nautical units.
time (UTC)temp
F
wind
direction
speed
MPH
gust
MPH
rain 1hr
in
rain 24hr
in
rain mn
in
humidity
%
barometer
mb
20260510030512 49 5 0.0 0.0 0.00 0.03 0.03 42 1016.6
20260510030043 50 5 0.0 0.0 0.00 0.03 0.03 42 1015.1
20260510030023 50 5 0.0 0.0 0.00 0.03 0.03 41 1016.6
20260510025507 50 5 0.0 0.0 0.00 0.03 0.03 40 1016.5
20260510025013 51 5 0.0 0.0 0.00 0.03 0.03 39 1016.5
20260510024546 51 5 0.0 0.0 0.00 0.03 0.03 40 1014.8
20260510024530 51 5 0.0 0.0 0.00 0.03 0.03 39 1016.3
20260510024009 51 5 0.0 0.0 0.00 0.03 0.03 38 1016.3
20260510023511 52 5 0.0 1.0 0.00 0.03 0.03 38 1016.2
20260510023040 52 5 0.0 1.0 0.00 0.03 0.03 38 1014.7
20260510023026 52 5 0.0 1.0 0.00 0.03 0.03 38 1016.1
20260510022509 52 5 0.0 1.0 0.00 0.03 0.03 38 1016.1
20260510022009 53 5 0.0 2.0 0.00 0.03 0.03 37 1016.0
20260510021537 53 5 0.0 2.0 0.00 0.03 0.03 37 1014.4
20260510021525 53 5 1.0 2.0 0.00 0.03 0.03 37 1016.0
20260510021007 53 11 1.0 3.0 0.00 0.03 0.03 36 1015.9
20260510020505 54 10 1.0 3.0 0.00 0.03 0.03 36 1015.9
20260510020036 54 334 2.0 4.0 0.00 0.03 0.03 36 1014.3
20260510020028 54 350 2.0 4.0 0.00 0.03 0.03 36 1015.8
20260510015510 54 341 2.0 4.0 0.00 0.03 0.03 35 1015.8
20260510015009 55 333 2.0 4.0 0.00 0.03 0.03 35 1015.7
20260510014535 55 338 2.0 4.0 0.00 0.03 0.03 35 1014.1
20260510014525 55 19 3.0 5.0 0.00 0.03 0.03 35 1015.7
20260510014010 55 317 2.0 5.0 0.00 0.03 0.03 35 1015.6
20260510013510 56 342 3.0 8.0 0.00 0.03 0.03 34 1015.6
20260510013032 56 350 3.0 8.0 0.00 0.03 0.03 34 1013.9
20260510013027 56 307 3.0 8.0 0.00 0.03 0.03 33 1015.6
20260510012510 56 349 4.0 8.0 0.00 0.03 0.03 33 1015.5
20260510012009 56 5 3.0 10.0 0.00 0.03 0.03 34 1015.5
20260510011542 57 1 4.0 10.0 0.00 0.03 0.03 33 1013.9
20260510011526 57 338 4.0 10.0 0.00 0.03 0.03 33 1015.5
20260510011007 57 333 4.0 9.0 0.00 0.03 0.03 33 1015.3
20260510010508 57 303 6.0 11.0 0.00 0.03 0.03 33 1015.2
20260510010031 57 329 5.0 11.0 0.00 0.03 0.03 34 1013.7
20260510010020 57 318 6.0 11.0 0.00 0.03 0.03 33 1015.2
20260510005506 58 316 5.0 8.0 0.00 0.03 0.03 32 1015.2
20260510005013 58 325 4.0 9.0 0.00 0.03 0.03 30 1015.1
20260510004531 58 27 4.0 11.0 0.00 0.03 0.03 31 1013.6
20260510004527 58 314 4.0 11.0 0.00 0.03 0.03 30 1015.1
20260510004008 58 288 6.0 12.0 0.00 0.03 0.03 30 1015.1
20260510003509 58 323 7.0 12.0 0.00 0.03 0.03 30 1015.1
20260510003055 58 302 5.0 11.0 0.00 0.03 0.03 30 1013.6
20260510003029 58 296 5.0 11.0 0.00 0.03 0.03 30 1015.0
20260510002508 59 319 6.0 13.0 0.00 0.03 0.03 29 1015.1
20260510002010 59 330 6.0 14.0 0.00 0.03 0.03 30 1015.0
20260510001531 59 343 6.0 14.0 0.00 0.03 0.03 30 1013.5
20260510001526 59 335 7.0 14.0 0.00 0.03 0.03 29 1014.9
20260510001012 59 311 8.0 16.0 0.00 0.03 0.03 29 1014.9
20260510000509 59 334 9.0 16.0 0.00 0.03 0.03 29 1014.9
20260510000028 60 307 8.0 15.0 0.00 0.03 0.03 28 1014.9
20260510000026 59 300 7.0 15.0 0.00 0.03 0.03 29 1013.4
20260509235506 60 302 9.0 15.0 0.00 0.03 0.03 28 1014.8
20260509235009 60 344 7.0 13.0 0.00 0.03 0.03 28 1014.9
20260509234529 60 20 7.0 14.0 0.00 0.03 0.03 29 1013.3
20260509234520 60 345 8.0 14.0 0.00 0.03 0.03 28 1014.8
20260509234009 60 304 8.0 17.0 0.00 0.03 0.03 28 1014.8
20260509233511 60 307 10.0 17.0 0.00 0.03 0.03 28 1014.8
20260509233025 60 293 7.0 13.0 0.00 0.03 0.03 27 1014.8
20260509232510 60 310 5.0 18.0 0.00 0.03 0.03 28 1014.8
20260509232010 60 333 8.0 19.0 0.00 0.03 0.03 28 1014.8
20260509231530 60 313 11.0 19.0 0.00 0.03 0.03 29 1013.2
20260509231527 60 346 11.0 19.0 0.00 0.03 0.03 27 1014.7
20260509231009 60 333 6.0 17.0 0.00 0.03 0.03 27 1014.7
20260509230510 60 321 8.0 17.0 0.00 0.03 0.03 27 1014.8
20260509230030 60 324 7.0 15.0 0.00 0.03 0.03 29 1013.0
20260509230028 60 307 7.0 15.0 0.00 0.03 0.03 29 1014.6
20260509225509 60 19 8.0 14.0 0.00 0.03 0.03 28 1014.6
20260509225009 60 335 7.0 15.0 0.00 0.03 0.03 29 1014.5
20260509224528 60 340 9.0 15.0 0.00 0.03 0.03 28 1014.5
20260509224524 60 342 8.0 15.0 0.00 0.03 0.03 29 1012.9
20260509224007 60 307 6.0 18.0 0.00 0.03 0.03 28 1014.4
20260509223507 60 330 7.0 18.0 0.00 0.03 0.03 28 1014.5
20260509223024 60 327 9.0 20.0 0.00 0.03 0.03 28 1014.4
20260509223022 60 346 8.0 20.0 0.00 0.03 0.03 29 1012.9
20260509222509 60 345 12.0 20.0 0.00 0.03 0.03 28 1014.4
20260509222008 60 2 8.0 15.0 0.00 0.03 0.03 29 1014.4
20260509221527 60 337 8.0 17.0 0.00 0.03 0.03 28 1014.5
20260509221519 60 1 7.0 16.0 0.00 0.03 0.03 29 1013.0
20260509221010 60 334 9.0 17.0 0.00 0.03 0.03 29 1014.5
20260509220503 59 318 10.0 18.0 0.00 0.03 0.03 29 1014.4
20260509220016 59 291 9.0 18.0 0.00 0.03 0.03 31 1012.9
20260509220011 59 336 10.0 18.0 0.00 0.03 0.03 29 1014.5
20260509215511 59 269 10.0 16.0 0.00 0.03 0.03 28 1014.4
20260509215006 59 340 9.0 16.0 0.00 0.03 0.03 29 1014.5
20260509214516 59 10 5.0 19.0 0.00 0.03 0.03 30 1014.5
20260509214007 59 2 11.0 19.0 0.00 0.03 0.03 31 1014.5
20260509213505 59 18 6.0 13.0 0.00 0.03 0.03 30 1014.5
20260509213022 59 313 8.0 13.0 0.00 0.03 0.03 32 1014.6
20260509213013 59 301 7.0 13.0 0.00 0.03 0.03 31 1013.0
20260509212507 59 319 7.0 21.0 0.00 0.03 0.03 31 1014.7
20260509212010 59 317 15.0 21.0 0.00 0.03 0.03 30 1014.6
20260509211523 59 281 8.0 19.0 0.00 0.03 0.03 31 1014.6
20260509211512 59 309 7.0 19.0 0.00 0.03 0.03 32 1013.0
20260509211004 59 353 6.0 16.0 0.00 0.03 0.03 32 1014.6
20260509210503 59 20 5.0 20.0 0.00 0.03 0.03 31 1014.6
20260509210014 59 319 8.0 20.0 0.00 0.03 0.03 32 1012.9
20260509210010 59 321 9.0 20.0 0.00 0.03 0.03 31 1014.6
20260509205502 59 327 10.0 17.0 0.00 0.03 0.03 32 1014.7
20260509205002 58 356 8.0 17.0 0.00 0.03 0.03 31 1014.8
20260509204514 58 18 10.0 17.0 0.00 0.03 0.03 31 1014.9
20260509204510 58 319 10.0 17.0 0.00 0.03 0.03 32 1013.0
20260509204006 58 307 8.0 15.0 0.00 0.03 0.03 32 1014.8
20260509203511 58 310 5.0 21.0 0.00 0.03 0.03 32 1014.8
20260509203029 58 300 9.0 21.0 0.00 0.03 0.03 32 1014.9
20260509203008 58 313 8.0 21.0 0.00 0.03 0.03 32 1013.1
20260509202507 57 11 9.0 19.0 0.00 0.03 0.03 31 1014.9
20260509202010 57 293 8.0 17.0 0.00 0.03 0.03 33 1014.8
20260509201526 57 345 7.0 17.0 0.00 0.03 0.03 33 1014.8
20260509201509 57 297 7.0 17.0 0.00 0.03 0.03 35 1013.0
20260509201009 57 327 10.0 15.0 0.00 0.03 0.03 33 1014.7
20260509200510 57 2 4.0 16.0 0.00 0.03 0.03 32 1014.6
20260509200033 57 51 8.0 20.0 0.00 0.03 0.03 33 1014.8
20260509200008 57 30 8.0 20.0 0.00 0.03 0.03 33 1013.0
20260509195504 58 13 12.0 20.0 0.00 0.03 0.03 33 1014.7
20260509195003 57 307 7.0 19.0 0.00 0.03 0.03 34 1014.5
20260509194510 57 311 10.0 19.0 0.00 0.03 0.03 34 1012.9
20260509194006 57 341 11.0 19.0 0.00 0.03 0.03 33 1014.5
20260509193511 57 282 9.0 18.0 0.00 0.03 0.03 32 1014.7
20260509193022 57 50 10.0 18.0 0.00 0.03 0.03 34 1014.7
20260509193002 57 35 10.0 18.0 0.00 0.03 0.03 35 1012.9
20260509192507 57 312 10.0 18.0 0.00 0.03 0.03 36 1014.7
20260509192007 56 342 12.0 18.0 0.00 0.03 0.03 33 1014.6
20260509191522 57 357 9.0 21.0 0.00 0.03 0.03 33 1014.7
20260509191503 57 357 8.0 21.0 0.00 0.03 0.03 34 1012.9
20260509191009 56 314 9.0 21.0 0.00 0.03 0.03 34 1014.7
20260509190507 57 321 10.0 17.0 0.00 0.03 0.03 36 1014.6
20260509190100 57 321 9.0 17.0 0.00 0.03 0.03 35 1012.9
20260509190026 57 307 8.0 17.0 0.00 0.03 0.03 37 1014.6
20260509185508 56 300 7.0 17.0 0.00 0.03 0.03 35 1014.6
20260509185011 56 305 7.0 19.0 0.00 0.03 0.03 37 1014.6
20260509184602 56 323 10.0 19.0 0.00 0.03 0.03 36 1012.9
20260509184529 56 1 11.0 19.0 0.00 0.03 0.03 35 1014.6
20260509184003 56 56 11.0 17.0 0.00 0.03 0.03 35 1014.6
20260509183504 56 326 7.0 15.0 0.00 0.03 0.03 36 1014.6
20260509183136 55 354 6.0 15.0 0.00 0.03 0.03 38 1012.9
20260509183014 55 274 8.0 16.0 0.00 0.03 0.03 35 1014.6
20260509182504 55 25 5.0 16.0 0.00 0.03 0.03 37 1014.5
20260509182010 55 309 10.0 16.0 0.00 0.03 0.03 37 1014.5
20260509181612 54 335 9.0 16.0 0.00 0.03 0.03 37 1012.9
20260509181519 55 341 9.0 16.0 0.00 0.03 0.03 35 1014.5
20260509181006 55 15 10.0 16.0 0.00 0.03 0.03 36 1014.4
20260509180511 54 18 6.0 13.0 0.00 0.03 0.03 39 1014.4
20260509180053 54 300 8.0 13.0 0.00 0.03 0.03 37 1012.8
20260509180021 55 303 8.0 13.0 0.00 0.03 0.03 37 1014.5
20260509175507 55 338 8.0 18.0 0.00 0.03 0.03 37 1014.5
20260509175009 55 3 7.0 18.0 0.00 0.03 0.03 38 1014.4
20260509174553 55 328 5.0 16.0 0.00 0.03 0.03 39 1012.6
20260509174539 55 290 4.0 18.0 0.00 0.03 0.03 40 1014.4
20260509174014 54 39 6.0 19.0 0.00 0.03 0.03 38 1014.5
20260509173508 53 30 11.0 19.0 0.00 0.03 0.03 39 1014.4
20260509173053 53 321 8.0 18.0 0.00 0.03 0.03 39 1012.6
20260509173025 53 314 9.0 21.0 0.00 0.03 0.03 38 1014.4
20260509172505 53 323 10.0 21.0 0.00 0.03 0.03 39 1014.4
20260509172002 53 316 8.0 19.0 0.00 0.03 0.03 40 1014.2
20260509171549 53 9 10.0 17.0 0.00 0.03 0.03 41 1012.5
20260509171512 53 340 11.0 17.0 0.00 0.03 0.03 40 1014.3
20260509171006 53 14 7.0 16.0 0.00 0.03 0.03 41 1014.3
20260509170504 53 18 11.0 16.0 0.00 0.03 0.03 42 1014.3
20260509170052 52 351 7.0 18.0 0.00 0.03 0.03 42 1012.6
20260509170019 53 31 8.0 18.0 0.00 0.03 0.03 41 1014.4
20260509165508 53 6 6.0 18.0 0.00 0.03 0.03 44 1014.2
20260509165008 52 324 9.0 15.0 0.00 0.03 0.03 42 1014.2
20260509164551 52 316 7.0 13.0 0.00 0.03 0.03 42 1012.3
20260509164524 52 328 7.0 13.0 0.00 0.03 0.03 42 1014.2
20260509164011 52 50 7.0 16.0 0.00 0.03 0.03 44 1014.2
20260509163509 52 311 8.0 16.0 0.00 0.03 0.03 44 1014.2
20260509163045 52 28 6.0 15.0 0.00 0.03 0.03 44 1012.3
20260509163036 52 49 6.0 15.0 0.00 0.03 0.03 43 1014.1
20260509162520 51 57 9.0 16.0 0.00 0.03 0.03 45 1013.9
20260509162009 51 356 8.0 16.0 0.00 0.03 0.03 45 1013.9
20260509161544 51 105 9.0 15.0 0.00 0.03 0.03 46 1012.1
20260509161539 51 29 10.0 15.0 0.00 0.03 0.03 45 1013.9
20260509161003 50 75 9.0 15.0 0.00 0.03 0.03 49 1013.8
20260509160506 50 27 12.0 17.0 0.00 0.03 0.03 48 1013.8
20260509160041 50 74 9.0 17.0 0.00 0.03 0.03 48 1011.9
20260509160014 50 58 8.0 17.0 0.00 0.03 0.03 50 1013.7
20260509155506 50 30 12.0 18.0 0.00 0.03 0.03 49 1013.7
20260509155006 50 53 11.0 18.0 0.00 0.03 0.03 50 1013.7
20260509154544 49 41 9.0 16.0 0.00 0.03 0.03 50 1011.8
20260509154523 49 50 9.0 16.0 0.00 0.03 0.03 52 1013.6
20260509154006 50 44 10.0 15.0 0.00 0.03 0.03 49 1013.5
20260509153506 50 22 10.0 15.0 0.00 0.03 0.03 49 1013.4
20260509153042 50 28 8.0 17.0 0.00 0.03 0.03 47 1013.3
20260509153038 50 23 8.0 14.0 0.00 0.03 0.03 49 1011.6
20260509152508 50 47 8.0 17.0 0.00 0.03 0.03 51 1013.1
20260509152010 49 42 9.0 20.0 0.00 0.03 0.03 52 1013.1
20260509151535 49 46 9.0 20.0 0.00 0.03 0.03 50 1011.3
20260509151528 49 48 10.0 20.0 0.00 0.03 0.03 50 1013.0
20260509151012 49 8 9.0 18.0 0.00 0.03 0.03 50 1013.0
20260509150518 49 356 12.0 18.0 0.00 0.03 0.03 49 1012.9
20260509150036 49 50 9.0 16.0 0.00 0.03 0.03 52 1012.7
20260509150034 49 354 9.0 13.0 0.00 0.03 0.03 53 1011.0
20260509145503 49 34 7.0 16.0 0.00 0.03 0.03 54 1012.6
20260509145005 49 4 9.0 14.0 0.00 0.03 0.03 53 1012.6
20260509144538 49 49 7.0 14.0 0.00 0.03 0.03 55 1010.8
20260509144519 48 60 7.0 16.0 0.00 0.03 0.03 55 1012.5
20260509144008 48 33 7.0 16.0 0.00 0.03 0.03 58 1012.6
20260509143507 48 34 10.0 15.0 0.00 0.03 0.03 54 1012.5
20260509143030 48 4 7.0 16.0 0.00 0.03 0.03 54 1010.6
20260509143025 48 359 8.0 17.0 0.00 0.03 0.03 54 1012.4
20260509142507 47 37 11.0 17.0 0.00 0.03 0.03 57 1012.4
20260509142009 47 23 12.0 16.0 0.00 0.03 0.03 56 1012.3
20260509141529 47 25 8.0 16.0 0.00 0.03 0.03 60 1010.4
20260509141524 47 49 9.0 16.0 0.00 0.03 0.03 60 1012.2
20260509141008 47 25 9.0 15.0 0.00 0.03 0.03 61 1012.1
20260509140513 47 36 10.0 15.0 0.00 0.03 0.03 62 1012.1
20260509140033 47 36 7.0 16.0 0.00 0.03 0.03 65 1012.0
20260509140027 47 27 7.0 16.0 0.00 0.03 0.03 64 1010.2
20260509135508 46 15 11.0 16.0 0.00 0.03 0.03 63 1011.9
20260509135014 47 27 9.0 15.0 0.00 0.03 0.03 67 1011.8
20260509134529 46 32 6.0 15.0 0.00 0.03 0.03 70 1011.7
20260509134524 46 4 6.0 15.0 0.00 0.03 0.03 70 1010.0
20260509134006 46 43 10.0 19.0 0.00 0.03 0.03 69 1011.7
20260509133507 46 328 11.0 19.0 0.00 0.03 0.03 70 1011.5
20260509133022 46 51 6.0 16.0 0.00 0.03 0.03 76 1009.7
20260509133019 46 16 7.0 16.0 0.00 0.03 0.03 76 1011.4
20260509132508 46 15 9.0 16.0 0.00 0.03 0.03 78 1011.4
20260509132010 46 13 9.0 15.0 0.00 0.03 0.03 79 1011.3
20260509131525 46 9 9.0 15.0 0.00 0.03 0.03 80 1011.2
20260509131519 46 49 9.0 15.0 0.00 0.03 0.03 81 1009.3
20260509131011 45 35 6.0 15.0 0.00 0.03 0.03 84 1011.1
20260509130504 45 356 9.0 15.0 0.00 0.03 0.03 84 1011.0
20260509130017 45 24 6.0 10.0 0.00 0.03 0.03 86 1009.1
20260509130007 45 323 6.0 10.0 0.00 0.03 0.03 86 1010.9
20260509125507 45 49 6.0 10.0 0.00 0.03 0.03 86 1010.8
20260509125003 45 333 5.0 9.0 0.00 0.03 0.03 86 1010.6
20260509124515 45 3 5.0 9.0 0.00 0.03 0.03 86 1008.7
20260509124509 45 314 5.0 9.0 0.00 0.03 0.03 86 1010.5
20260509124004 44 323 4.0 11.0 0.00 0.03 0.03 87 1010.5
20260509123503 44 314 5.0 11.0 0.00 0.03 0.03 87 1010.4
20260509123013 44 334 5.0 9.0 0.00 0.03 0.03 88 1008.5
20260509123011 44 343 6.0 9.0 0.00 0.03 0.03 87 1010.2
20260509122502 44 342 4.0 9.0 0.00 0.03 0.03 87 1010.0
20260509122003 44 24 5.0 10.0 0.00 0.03 0.03 88 1010.0
20260509121512 44 25 5.0 12.0 0.00 0.03 0.03 88 1009.9
20260509121509 44 15 4.0 10.0 0.00 0.03 0.03 88 1008.2
20260509121002 44 300 5.0 12.0 0.00 0.03 0.03 88 1009.8
20260509120502 44 320 5.0 10.0 0.00 0.03 0.03 88 1009.7
20260509120008 43 337 5.0 10.0 0.00 0.03 0.03 89 1007.7
20260509120006 43 315 6.0 10.0 0.00 0.03 0.03 88 1009.5
20260509115504 43 30 5.0 9.0 0.00 0.03 0.03 88 1009.4
20260509115002 43 40 5.0 12.0 0.00 0.03 0.03 89 1009.4
20260509114512 43 305 6.0 12.0 0.00 0.03 0.03 89 1009.3
20260509114504 43 323 5.0 12.0 0.00 0.03 0.03 90 1007.4
20260509114003 43 322 5.0 12.0 0.00 0.03 0.03 89 1009.2
20260509113504 43 334 6.0 12.0 0.00 0.03 0.03 90 1009.2
20260509113009 43 356 6.0 10.0 0.00 0.03 0.03 90 1009.1
20260509113001 43 356 5.0 10.0 0.00 0.03 0.03 91 1007.3
20260509112503 43 350 5.0 10.0 0.00 0.03 0.03 91 1009.2
20260509112003 43 353 4.0 7.0 0.00 0.03 0.03 90 1009.1
20260509111559 43 314 3.0 8.0 0.00 0.03 0.03 90 1007.2
20260509111509 43 12 3.0 8.0 0.00 0.03 0.03 89 1009.1
20260509111003 44 360 4.0 9.0 0.00 0.03 0.03 89 1009.0
20260509110503 44 322 5.0 11.0 0.00 0.03 0.03 89 1009.0
20260509110054 44 351 5.0 11.0 0.00 0.03 0.03 89 1007.1
20260509110009 44 327 5.0 12.0 0.00 0.03 0.03 88 1008.9
20260509105504 44 353 7.0 12.0 0.00 0.03 0.03 88 1008.6
20260509105003 45 21 6.0 10.0 0.00 0.03 0.03 89 1008.5
20260509104551 45 27 6.0 12.0 0.00 0.03 0.03 89 1006.6
20260509104510 45 328 6.0 12.0 0.00 0.03 0.03 89 1008.5
20260509104002 45 332 6.0 12.0 0.00 0.03 0.03 89 1008.4
20260509103503 45 22 6.0 12.0 0.00 0.03 0.03 89 1008.3
20260509103047 46 305 5.0 12.0 0.00 0.03 0.03 90 1006.5
20260509103008 46 20 6.0 12.0 0.00 0.03 0.03 89 1008.2
20260509102504 46 345 6.0 12.0 0.00 0.03 0.03 89 1008.1
20260509102003 46 14 5.0 8.0 0.00 0.03 0.03 89 1008.1
20260509101551 46 30 4.0 8.0 0.00 0.03 0.03 89 1006.2
20260509101509 46 329 5.0 8.0 0.00 0.03 0.03 88 1008.1
20260509101002 47 25 5.0 12.0 0.00 0.03 0.03 88 1008.0
20260509100502 47 351 5.0 12.0 0.00 0.03 0.03 87 1007.9
20260509100039 47 311 6.0 11.0 0.00 0.03 0.03 88 1006.0
20260509100010 47 12 6.0 12.0 0.00 0.03 0.03 87 1007.8
20260509095506 47 311 5.0 13.0 0.00 0.03 0.03 87 1007.7
20260509095004 48 32 7.0 13.0 0.00 0.03 0.03 86 1007.5
20260509094540 48 16 8.0 16.0 0.00 0.03 0.03 86 1005.8
20260509094506 48 1 8.0 16.0 0.00 0.03 0.03 86 1007.6
20260509094003 48 23 8.0 16.0 0.00 0.03 0.03 85 1007.5
20260509093503 49 359 7.0 14.0 0.01 0.03 0.03 85 1007.5
20260509093045 49 358 7.0 13.0 0.01 0.03 0.03 86 1005.7
20260509093009 49 327 7.0 13.0 0.01 0.03 0.03 86 1007.4
20260509092504 49 9 6.0 11.0 0.01 0.03 0.03 86 1007.5
20260509092004 49 323 4.0 10.0 0.02 0.03 0.03 86 1007.4
20260509091536 49 324 6.0 10.0 0.02 0.03 0.03 86 1005.7
20260509091512 49 320 7.0 10.0 0.02 0.03 0.03 85 1007.4
20260509091002 49 319 4.0 9.0 0.02 0.03 0.03 85 1007.4
20260509090506 49 309 3.0 8.0 0.03 0.03 0.03 85 1007.4
20260509090031 49 301 3.0 8.0 0.03 0.03 0.03 86 1005.5
20260509090008 49 302 3.0 8.0 0.03 0.03 0.03 85 1007.3
20260509085503 49 301 5.0 8.0 0.03 0.03 0.03 86 1007.3
20260509085005 49 250 1.0 5.0 0.03 0.03 0.03 86 1007.2
20260509084542 49 283 1.0 4.0 0.03 0.03 0.03 86 1004.9
20260509084512 49 279 1.0 4.0 0.03 0.03 0.03 85 1006.8
20260509084004 49 264 2.0 4.0 0.03 0.03 0.03 85 1006.5
20260509083502 49 242 0.0 3.0 0.02 0.02 0.02 85 1006.2
20260509083026 48 340 0.0 3.0 0.02 0.02 0.02 87 1004.4
20260509083015 48 340 0.0 3.0 0.02 0.02 0.02 86 1006.3
20260509082505 48 133 1.0 3.0 0.02 0.02 0.02 87 1006.5
20260509082006 48 207 1.0 3.0 0.01 0.01 0.01 86 1006.8
20260509081535 48 266 2.0 3.0 0.01 0.01 0.01 86 1004.8
20260509081511 48 252 2.0 3.0 0.01 0.01 0.01 85 1006.7
20260509081005 48 252 2.0 3.0 0.01 0.01 0.01 84 1006.6
20260509080504 49 239 2.0 3.0 0.00 0.00 0.00 84 1006.6
20260509080031 49 223 2.0 3.0 0.00 0.00 0.00 83 1004.5
20260509080014 49 221 2.0 3.0 0.00 0.00 0.00 83 1006.4
20260509075503 49 226 1.0 2.0 0.00 0.00 0.00 82 1006.1
20260509075006 49 131 0.0 3.0 0.00 0.00 0.00 81 1005.8
20260509074521 49 83 0.0 4.0 0.00 0.00 0.00 81 1004.3
20260509074510 49 83 0.0 4.0 0.00 0.00 0.00 81 1006.1
20260509074003 49 81 1.0 7.0 0.00 0.00 0.00 80 1005.9
20260509073503 49 63 4.0 11.0 0.00 0.00 0.00 80 1005.8
20260509073019 50 58 4.0 11.0 0.00 0.00 0.00 81 1004.2
20260509073014 50 70 4.0 11.0 0.00 0.00 0.00 80 1005.8
20260509072506 50 65 7.0 12.0 0.00 0.00 0.00 80 1005.8
20260509072009 50 56 7.0 13.0 0.00 0.00 0.00 80 1006.0
20260509071517 50 59 7.0 13.0 0.00 0.00 0.00 80 1004.3
20260509071511 50 57 8.0 13.0 0.00 0.00 0.00 79 1005.9
20260509071005 50 37 6.0 14.0 0.00 0.00 0.00 79 1005.9
20260509070503 51 50 9.0 14.0 0.00 0.00 0.00 78 1005.8
20260509070014 51 24 8.0 18.0 0.00 0.00 0.00 77 1004.5
20260509070011 51 27 8.0 21.0 0.00 0.00 0.00 77 1006.2
20260509065502 51 41 11.0 21.0 0.00 0.00 0.00 76 1005.9
20260509065003 52 20 13.0 20.0 0.00 0.00 0.00 74 1005.9
20260509064512 52 15 12.0 18.0 0.00 0.00 0.00 73 1005.7
20260509064009 53 68 13.0 21.0 0.00 0.00 0.00 71 1005.7
20260509063504 54 20 12.0 22.0 0.00 0.00 0.00 68 1005.6
20260509063018 54 46 15.0 22.0 0.00 0.00 0.00 65 1005.7
20260509063006 54 354 14.0 22.0 0.00 0.00 0.00 65 1004.1
20260509062508 55 9 10.0 21.0 0.00 0.00 0.00 61 1005.4
20260509062008 55 10 12.0 20.0 0.00 0.00 0.00 59 1005.4
20260509061512 55 360 8.0 14.0 0.00 0.00 0.00 56 1005.3
20260509061505 55 360 8.0 14.0 0.00 0.00 0.00 56 1003.6
20260509061005 54 25 8.0 12.0 0.00 0.00 0.00 54 1005.3
20260509060505 54 338 6.0 11.0 0.00 0.00 0.00 53 1005.2
20260509060058 54 317 4.0 8.0 0.00 0.00 0.00 53 1003.2
20260509060019 54 338 4.0 8.0 0.00 0.00 0.00 53 1004.8
20260509055503 54 311 5.0 8.0 0.00 0.00 0.00 53 1004.7
20260509055005 54 319 5.0 8.0 0.00 0.00 0.00 52 1004.7
20260509054602 54 282 4.0 10.0 0.00 0.00 0.00 52 1002.8
20260509054512 55 307 5.0 10.0 0.00 0.00 0.00 51 1004.6
20260509054006 55 307 6.0 14.0 0.00 0.00 0.00 49 1004.6
20260509053506 55 330 5.0 14.0 0.00 0.00 0.00 48 1004.7
20260509053058 55 324 8.0 16.0 0.00 0.00 0.00 47 1002.9
20260509053018 55 318 7.0 16.0 0.00 0.00 0.00 46 1004.7
20260509052503 54 319 9.0 19.0 0.00 0.00 0.00 48 1004.6
20260509052006 52 330 8.0 19.0 0.00 0.00 0.00 51 1004.8
20260509051558 52 248 5.0 8.0 0.00 0.00 0.00 49 1001.9
20260509051515 52 239 6.0 8.0 0.00 0.00 0.00 49 1003.6
20260509051003 52 258 2.0 5.0 0.00 0.00 0.00 49 1003.7
20260509050508 52 248 3.0 8.0 0.00 0.00 0.00 48 1003.8
20260509050048 53 232 4.0 10.0 0.00 0.00 0.00 47 1002.1
20260509050039 53 238 5.0 10.0 0.00 0.00 0.00 47 1003.9
20260509045505 53 246 7.0 10.0 0.00 0.00 0.00 47 1003.9
20260509045006 53 238 5.0 8.0 0.00 0.00 0.00 47 1003.9
20260509044545 53 238 5.0 9.0 0.00 0.00 0.00 48 1002.2
20260509044515 53 240 6.0 9.0 0.00 0.00 0.00 47 1003.9
20260509044006 53 229 6.0 11.0 0.00 0.00 0.00 47 1003.8
20260509043506 53 229 7.0 11.0 0.00 0.00 0.00 47 1003.9
20260509043044 53 237 8.0 11.0 0.00 0.00 0.00 47 1002.2
20260509043012 53 236 8.0 11.0 0.00 0.00 0.00 46 1003.9
20260509042506 53 231 8.0 11.0 0.00 0.00 0.00 47 1003.8
20260509042011 52 233 7.0 10.0 0.00 0.00 0.00 47 1003.9
20260509041544 52 226 7.0 10.0 0.00 0.00 0.00 47 1002.2
20260509041520 52 217 7.0 10.0 0.00 0.00 0.00 47 1003.9
20260509041006 53 219 7.0 10.0 0.00 0.00 0.00 46 1003.9
20260509040512 53 219 8.0 10.0 0.00 0.00 0.00 46 1003.9
20260509040044 53 236 7.0 9.0 0.00 0.00 0.00 46 1002.2
20260509040018 53 221 7.0 9.0 0.00 0.00 0.00 46 1004.0
20260509035510 53 231 6.0 8.0 0.00 0.00 0.00 46 1004.1
20260509035007 52 233 5.0 7.0 0.00 0.00 0.00 47 1004.1
20260509034545 52 217 5.0 7.0 0.00 0.00 0.00 48 1002.4
20260509034518 52 221 5.0 7.0 0.00 0.00 0.00 47 1004.2
20260509034006 52 202 6.0 8.0 0.00 0.00 0.00 47 1004.2
20260509033506 52 224 6.0 8.0 0.00 0.00 0.00 47 1004.3
20260509033040 52 218 4.0 8.0 0.00 0.00 0.00 47 1002.4
20260509033019 52 227 5.0 6.0 0.00 0.00 0.00 47 1004.3
20260509032508 52 211 5.0 6.0 0.00 0.00 0.00 47 1004.3
20260509032011 51 217 5.0 6.0 0.00 0.00 0.00 47 1004.3
20260509031539 51 217 4.0 6.0 0.00 0.00 0.00 48 1002.6
20260509031528 51 226 4.0 5.0 0.00 0.00 0.00 48 1004.3
20260509031009 51 208 3.0 5.0 0.00 0.00 0.00 47 1004.4